Time,TemperatureF,DewpointF,PressureIn,WindDirection,WindDirectionDegrees,WindSpeedMPH,WindSpeedGustMPH,Humidity,HourlyPrecipIn,Conditions,Clouds,dailyrainin,SoftwareType,DateUTC
2013-09-23 00:00:00,72.3,71.1,29.68,West,270,0.0,-999.0,96,-99.99,,,0.00,Acu-Link.com,2013-09-23 04:00:00,
2013-09-23 00:15:00,72.1,70.9,29.69,West,270,0.0,-999.0,96,-99.99,,,0.00,Acu-Link.com,2013-09-23 04:15:00,
2013-09-23 00:30:00,72.1,70.9,29.69,South,180,0.0,-999.0,96,-99.99,,,0.00,Acu-Link.com,2013-09-23 04:30:00,
2013-09-23 00:46:00,72.0,70.8,29.69,South,180,0.0,-999.0,96,-99.99,,,0.00,Acu-Link.com,2013-09-23 04:46:00,
2013-09-23 01:01:00,72.0,70.8,29.69,West,270,0.0,-999.0,96,-99.99,,,0.00,Acu-Link.com,2013-09-23 05:01:00,
2013-09-23 01:16:00,72.0,70.8,29.68,SE,135,0.0,-999.0,96,-99.99,,,0.00,Acu-Link.com,2013-09-23 05:16:00,
2013-09-23 01:31:00,72.0,70.8,29.68,ESE,112,0.0,-999.0,96,-99.99,,,0.00,Acu-Link.com,2013-09-23 05:31:00,
2013-09-23 01:47:00,72.0,70.8,29.68,SE,135,0.0,-999.0,96,-99.99,,,0.00,Acu-Link.com,2013-09-23 05:47:00,
2013-09-23 02:02:00,71.8,70.6,29.67,SE,135,0.0,-999.0,96,-99.99,,,0.00,Acu-Link.com,2013-09-23 06:02:00,
2013-09-23 02:17:00,71.8,70.6,29.67,SSE,157,0.0,-999.0,96,-99.99,,,0.00,Acu-Link.com,2013-09-23 06:17:00,
2013-09-23 02:33:00,71.6,70.4,29.67,WNW,292,0.0,-999.0,96,-99.99,,,0.00,Acu-Link.com,2013-09-23 06:33:00,
2013-09-23 02:48:00,71.6,70.4,29.68,SSE,157,0.0,-999.0,96,-99.99,,,0.00,Acu-Link.com,2013-09-23 06:48:00,
2013-09-23 03:03:00,71.6,70.4,29.68,SSE,157,0.0,-999.0,96,-99.99,,,0.00,Acu-Link.com,2013-09-23 07:03:00,
2013-09-23 03:19:00,71.6,70.7,29.67,SE,135,0.0,-999.0,97,-99.99,,,0.00,Acu-Link.com,2013-09-23 07:19:00,
2013-09-23 03:34:00,71.6,70.7,29.68,ESE,112,0.0,-999.0,97,-99.99,,,0.00,Acu-Link.com,2013-09-23 07:34:00,
2013-09-23 03:49:00,71.6,70.7,29.69,East,90,0.0,-999.0,97,-99.99,,,0.00,Acu-Link.com,2013-09-23 07:49:00,
2013-09-23 04:05:00,71.6,70.7,29.68,SE,135,0.0,-999.0,97,-99.99,,,0.00,Acu-Link.com,2013-09-23 08:05:00,
2013-09-23 04:20:00,71.6,70.7,29.68,SE,135,0.0,-999.0,97,-99.99,,,0.00,Acu-Link.com,2013-09-23 08:20:00,
2013-09-23 04:35:00,71.6,70.7,29.69,SE,135,0.0,-999.0,97,-99.99,,,0.00,Acu-Link.com,2013-09-23 08:35:00,
2013-09-23 04:50:00,71.6,70.7,29.68,ESE,112,0.0,-999.0,97,-99.99,,,0.00,Acu-Link.com,2013-09-23 08:50:00,
2013-09-23 05:05:00,71.4,70.5,29.68,ESE,112,0.0,-999.0,97,-99.99,,,0.00,Acu-Link.com,2013-09-23 09:05:00,
2013-09-23 05:20:00,71.4,70.5,29.69,SSE,157,0.0,-999.0,97,-99.99,,,0.00,Acu-Link.com,2013-09-23 09:20:00,
2013-09-23 05:36:00,71.4,70.5,29.70,SSE,157,0.0,-999.0,97,-99.99,,,0.00,Acu-Link.com,2013-09-23 09:36:00,
2013-09-23 05:51:00,71.4,70.5,29.71,SE,135,0.0,-999.0,97,-99.99,,,0.00,Acu-Link.com,2013-09-23 09:51:00,
2013-09-23 06:06:00,71.6,70.7,29.71,SE,135,0.0,-999.0,97,-99.99,,,0.00,Acu-Link.com,2013-09-23 10:06:00,
2013-09-23 06:22:00,71.6,70.7,29.72,ESE,112,0.0,-999.0,97,-99.99,,,0.00,Acu-Link.com,2013-09-23 10:22:00,
2013-09-23 06:37:00,71.6,70.7,29.72,SE,135,0.0,-999.0,97,-99.99,,,0.00,Acu-Link.com,2013-09-23 10:37:00,
2013-09-23 06:52:00,71.6,70.7,29.73,WNW,292,0.0,-999.0,97,-99.99,,,0.00,Acu-Link.com,2013-09-23 10:52:00,
2013-09-23 07:07:00,71.6,70.7,29.73,SE,135,0.0,-999.0,97,-99.99,,,0.00,Acu-Link.com,2013-09-23 11:07:00,
2013-09-23 07:23:00,71.6,70.7,29.73,ESE,112,0.0,-999.0,97,-99.99,,,0.00,Acu-Link.com,2013-09-23 11:23:00,
2013-09-23 07:38:00,71.8,70.9,29.74,SSE,157,0.0,-999.0,97,-99.99,,,0.00,Acu-Link.com,2013-09-23 11:38:00,
2013-09-23 07:53:00,71.8,70.9,29.74,SE,135,0.0,-999.0,97,-99.99,,,0.00,Acu-Link.com,2013-09-23 11:53:00,
2013-09-23 08:09:00,71.8,70.9,29.74,ESE,112,0.0,-999.0,97,-99.99,,,0.00,Acu-Link.com,2013-09-23 12:09:00,
2013-09-23 08:24:00,72.1,71.2,29.74,WNW,292,0.0,-999.0,97,-99.99,,,0.00,Acu-Link.com,2013-09-23 12:24:00,
2013-09-23 08:39:00,72.5,71.6,29.74,NNW,337,0.0,-999.0,97,-99.99,,,0.00,Acu-Link.com,2013-09-23 12:39:00,
2013-09-23 08:54:00,73.2,72.3,29.75,ENE,67,0.0,-999.0,97,-99.99,,,0.00,Acu-Link.com,2013-09-23 12:54:00,
2013-09-23 09:10:00,73.9,72.7,29.75,SSE,157,0.0,-999.0,96,-99.99,,,0.00,Acu-Link.com,2013-09-23 13:10:00,
2013-09-23 09:25:00,75.4,74.2,29.76,East,90,0.0,-999.0,96,-99.99,,,0.00,Acu-Link.com,2013-09-23 13:25:00,
2013-09-23 09:40:00,75.0,73.5,29.77,NNE,22,0.0,-999.0,95,-99.99,,,0.00,Acu-Link.com,2013-09-23 13:40:00,
2013-09-23 09:55:00,74.8,73.3,29.77,WNW,292,0.0,-999.0,95,-99.99,,,0.00,Acu-Link.com,2013-09-23 13:55:00,
2013-09-23 10:10:00,74.7,73.1,29.77,WNW,292,0.0,-999.0,95,-99.99,,,0.00,Acu-Link.com,2013-09-23 14:10:00,
2013-09-23 10:26:00,74.5,72.9,29.79,SSE,157,0.0,-999.0,95,-99.99,,,0.00,Acu-Link.com,2013-09-23 14:26:00,
2013-09-23 10:41:00,74.5,73.3,29.79,West,270,0.0,-999.0,96,-99.99,,,0.00,Acu-Link.com,2013-09-23 14:41:00,
2013-09-23 10:56:00,74.8,73.6,29.79,West,270,0.0,-999.0,96,-99.99,,,0.01,Acu-Link.com,2013-09-23 14:56:00,
2013-09-23 11:12:00,74.8,73.6,29.79,SE,135,0.0,-999.0,96,-99.99,,,0.02,Acu-Link.com,2013-09-23 15:12:00,
2013-09-23 11:27:00,75.6,74.0,29.79,ESE,112,0.0,-999.0,95,-99.99,,,0.05,Acu-Link.com,2013-09-23 15:27:00,
2013-09-23 11:42:00,76.5,74.6,29.79,SE,135,0.0,-999.0,94,-99.99,,,0.05,Acu-Link.com,2013-09-23 15:42:00,
2013-09-23 11:57:00,77.4,75.2,29.79,WNW,292,0.0,-999.0,93,-99.99,,,0.05,Acu-Link.com,2013-09-23 15:57:00,
2013-09-23 12:13:00,77.5,75.3,29.79,South,180,0.0,-999.0,93,-99.99,,,0.05,Acu-Link.com,2013-09-23 16:13:00,
2013-09-23 12:28:00,77.9,75.4,29.78,SE,135,0.0,-999.0,92,-99.99,,,0.06,Acu-Link.com,2013-09-23 16:28:00,
2013-09-23 12:43:00,78.3,75.7,29.78,NW,315,0.0,-999.0,92,-99.99,,,0.06,Acu-Link.com,2013-09-23 16:43:00,
2013-09-23 12:58:00,78.8,75.9,29.78,ESE,112,0.0,-999.0,91,-99.99,,,0.06,Acu-Link.com,2013-09-23 16:58:00,
2013-09-23 13:13:00,78.6,75.8,29.76,SE,135,0.0,-999.0,91,-99.99,,,0.06,Acu-Link.com,2013-09-23 17:13:00,
2013-09-23 13:28:00,78.1,74.9,29.76,East,90,0.0,-999.0,90,-99.99,,,0.06,Acu-Link.com,2013-09-23 17:28:00,
2013-09-23 13:44:00,78.4,75.6,29.76,ESE,112,0.0,-999.0,91,-99.99,,,0.06,Acu-Link.com,2013-09-23 17:44:00,
2013-09-23 13:59:00,78.3,75.1,29.76,South,180,0.0,-999.0,90,-99.99,,,0.06,Acu-Link.com,2013-09-23 17:59:00,
2013-09-23 14:14:00,78.3,75.4,29.75,SSE,157,0.0,-999.0,91,-99.99,,,0.06,Acu-Link.com,2013-09-23 18:14:00,
2013-09-23 14:30:00,78.1,75.2,29.74,SSE,157,1.1,-999.0,91,-99.99,,,0.06,Acu-Link.com,2013-09-23 18:30:00,
2013-09-23 14:45:00,78.3,75.4,29.75,SSE,157,0.0,-999.0,91,-99.99,,,0.06,Acu-Link.com,2013-09-23 18:45:00,
2013-09-23 15:00:00,78.8,75.6,29.75,SE,135,2.2,-999.0,90,-99.99,,,0.06,Acu-Link.com,2013-09-23 19:00:00,
2013-09-23 15:15:00,79.0,75.8,29.75,SSE,157,3.1,-999.0,90,-99.99,,,0.06,Acu-Link.com,2013-09-23 19:15:00,
2013-09-23 15:30:00,79.5,76.0,29.75,SSE,157,1.6,-999.0,89,-99.99,,,0.06,Acu-Link.com,2013-09-23 19:30:00,
2013-09-23 15:46:00,80.6,76.7,29.75,ESE,112,0.0,-999.0,88,-99.99,,,0.06,Acu-Link.com,2013-09-23 19:46:00,
2013-09-23 16:01:00,81.5,76.5,29.74,ENE,67,0.0,-999.0,85,-99.99,,,0.06,Acu-Link.com,2013-09-23 20:01:00,
2013-09-23 16:16:00,81.1,76.2,29.74,SSE,157,3.1,-999.0,85,-99.99,,,0.06,Acu-Link.com,2013-09-23 20:16:00,
2013-09-23 16:31:00,82.6,76.9,29.74,NE,45,0.0,-999.0,83,-99.99,,,0.06,Acu-Link.com,2013-09-23 20:31:00,
2013-09-23 16:46:00,81.7,76.0,29.74,South,180,0.0,-999.0,83,-99.99,,,0.06,Acu-Link.com,2013-09-23 20:46:00,
2013-09-23 17:02:00,81.3,76.4,29.74,ESE,112,1.1,-999.0,85,-99.99,,,0.06,Acu-Link.com,2013-09-23 21:02:00,
2013-09-23 17:17:00,81.0,75.7,29.75,East,90,1.1,-999.0,84,-99.99,,,0.06,Acu-Link.com,2013-09-23 21:17:00,
2013-09-23 17:32:00,80.8,75.8,29.75,SSE,157,0.0,-999.0,85,-99.99,,,0.06,Acu-Link.com,2013-09-23 21:32:00,
2013-09-23 17:47:00,81.0,76.0,29.75,SE,135,1.6,-999.0,85,-99.99,,,0.06,Acu-Link.com,2013-09-23 21:47:00,
2013-09-23 18:03:00,81.0,75.7,29.75,ENE,67,1.6,-999.0,84,-99.99,,,0.06,Acu-Link.com,2013-09-23 22:03:00,
2013-09-23 18:18:00,80.6,75.3,29.75,SSE,157,1.1,-999.0,84,-99.99,,,0.06,Acu-Link.com,2013-09-23 22:18:00,
2013-09-23 18:33:00,80.1,75.1,29.76,SE,135,0.0,-999.0,85,-99.99,,,0.06,Acu-Link.com,2013-09-23 22:33:00,
2013-09-23 18:48:00,79.7,75.5,29.75,SSE,157,0.0,-999.0,87,-99.99,,,0.06,Acu-Link.com,2013-09-23 22:48:00,
2013-09-23 19:03:00,79.3,75.8,29.75,SSE,157,0.0,-999.0,89,-99.99,,,0.06,Acu-Link.com,2013-09-23 23:03:00,
2013-09-23 19:19:00,78.4,75.3,29.75,SSE,157,2.2,-999.0,90,-99.99,,,0.06,Acu-Link.com,2013-09-23 23:19:00,
2013-09-23 19:34:00,78.1,75.2,29.76,SSE,157,1.6,-999.0,91,-99.99,,,0.06,Acu-Link.com,2013-09-23 23:34:00,
2013-09-23 19:49:00,77.7,74.9,29.76,South,180,1.6,-999.0,91,-99.99,,,0.06,Acu-Link.com,2013-09-23 23:49:00,
2013-09-23 20:04:00,77.5,74.7,29.76,SSE,157,0.0,-999.0,91,-99.99,,,0.06,Acu-Link.com,2013-09-24 00:04:00,
2013-09-23 20:20:00,77.2,74.7,29.77,ESE,112,0.0,-999.0,92,-99.99,,,0.06,Acu-Link.com,2013-09-24 00:20:00,
2013-09-23 20:35:00,77.0,74.5,29.77,East,90,1.6,-999.0,92,-99.99,,,0.06,Acu-Link.com,2013-09-24 00:35:00,
2013-09-23 20:50:00,76.8,74.3,29.77,ESE,112,0.0,-999.0,92,-99.99,,,0.06,Acu-Link.com,2013-09-24 00:50:00,
2013-09-23 21:05:00,76.8,74.3,29.77,SSE,157,1.6,-999.0,92,-99.99,,,0.06,Acu-Link.com,2013-09-24 01:05:00,
2013-09-23 21:20:00,76.3,73.1,29.78,WSW,247,0.0,-999.0,90,-99.99,,,0.06,Acu-Link.com,2013-09-24 01:20:00,
2013-09-23 21:36:00,75.6,72.7,29.78,SSE,157,0.0,-999.0,91,-99.99,,,0.06,Acu-Link.com,2013-09-24 01:36:00,
2013-09-23 21:51:00,75.0,72.5,29.79,SE,135,0.0,-999.0,92,-99.99,,,0.06,Acu-Link.com,2013-09-24 01:51:00,
2013-09-23 22:06:00,74.5,72.3,29.80,SSE,157,1.1,-999.0,93,-99.99,,,0.06,Acu-Link.com,2013-09-24 02:06:00,
2013-09-23 22:22:00,74.1,72.3,29.79,SE,135,0.0,-999.0,94,-99.99,,,0.06,Acu-Link.com,2013-09-24 02:22:00,
2013-09-23 22:37:00,73.9,72.1,29.80,SSE,157,0.0,-999.0,94,-99.99,,,0.06,Acu-Link.com,2013-09-24 02:37:00,
2013-09-23 22:52:00,73.8,71.9,29.79,ESE,112,0.0,-999.0,94,-99.99,,,0.06,Acu-Link.com,2013-09-24 02:52:00,
2013-09-23 23:07:00,73.6,71.7,29.78,ESE,112,0.0,-999.0,94,-99.99,,,0.06,Acu-Link.com,2013-09-24 03:07:00,
2013-09-23 23:23:00,73.4,71.9,29.78,ESE,112,0.0,-999.0,95,-99.99,,,0.06,Acu-Link.com,2013-09-24 03:23:00,
2013-09-23 23:38:00,73.4,72.2,29.79,SSE,157,0.0,-999.0,96,-99.99,,,0.06,Acu-Link.com,2013-09-24 03:38:00,
2013-09-23 23:53:00,73.4,72.2,29.79,ESE,112,0.0,-999.0,96,-99.99,,,0.06,Acu-Link.com,2013-09-24 03:53:00,